www.pogodaiklimat.ru

Погода и климат >> Архив погоды >> Таиланд >> Си Самронг Агромет


ПОГОДА в Си Самронг Агромете

  • Прогноз погоды в Си Самронг Агромете
  • Монитор погоды в Си Самронг Агромете

АРХИВ ПОГОДЫ в Си Самронг Агромете

Время (UTC), дата Ветер
(напр.,м/с)
 
Видим.   Явления Облачность Т
(С)
Тd
(С)
f
(%)
Тe
(С)
Тes
(С)
Комфортность P
(гПа)
Po
(гПа)
Тmin
(С)
Tmax
(С)
R
(мм)
R24
(мм)
S
(см)
21 18.08 штиль 0 10 км 10/4 600 м
[Cu Sc Ac trans Cs]
+27.3 +26.0 93 +41 +41 опасность
перегрева
1006.8 1000.6
00 19.08 штиль 0 10 км 10/6 600 м
[Cu Sc Ac trans Cs]
+26.3 +25.9 98 +39 +39 очень
душно
1008.4 1002.2 +25.9
03 19.08 З 6 12 км 8/3 600 м
[Cu Sc Ac trans Cs]
+30.1 +25.4 76 +44 +47 опасность
перегрева
1008.7 1002.6
06 19.08 ЮЗ 6 10 км 10/5 600 м
[Cu Sc Ac trans Cs]
+32.9 +25.0 63 +46 +49 опасность
перегрева
1007.0 1000.9
09 19.08 СЗ 3 12 км 10/6 50 м
[Cu Sc Ac trans Cs]
+32.0 +25.2 67 +46 +47 опасность
перегрева
1004.6 998.5
12 19.08 штиль 0 10 км 8/3 600 м
[Cu hum Ac trans Cs]
+30.4 +24.9 72 +43 +43 опасность
перегрева
1004.3 998.2 +33.9
15 19.08 штиль 0 10 км 8/3 600 м
[Cu Sc Ac trans Cs]
+29.0 +24.7 78 +41 +41 опасность
перегрева
1006.6 1000.5
18 19.08 штиль 0 10 км 8/3 600 м
[Cu Sc Ac trans Cs]
+28.5 +24.5 79 +40 +40 очень
душно
1005.6 999.5
21 19.08 штиль 0 10 км 8/4 600 м
[Sc Ac trans Cs]
+26.8 +24.9 89 +38 +38 очень
душно
1004.3 998.1
00 20.08 штиль 0 10 км 8/3 600 м
[Sc Ac trans Cs]
+25.4 +24.8 96 +36 +36 очень
душно
1005.9 999.7 +25.0
03 20.08 штиль 0 12 км 8/3 600 м
[Cu Sc Ac trans Cs]
+31.0 +25.4 72 +45 +54 опасность
перегрева
1006.3 1000.2
06 20.08 З 5 12 км 9/4 600 м
[Cu hum Ac trans Cs]
+33.9 +24.9 59 +47 +51 опасность
перегрева
1004.0 998.0
09 20.08 штиль 0 12 км 9/4 600 м
[Cu hum Ac trans Cs]
+33.7 +25.3 62 +48 +52 опасность
перегрева
1001.6 995.6
12 20.08 З 4 10 км 10/5 600 м
[Cu Sc Ac trans Cs]
+29.5 +26.0 81 +44 +44 опасность
перегрева
1002.9 996.8 +34.1
15 20.08 штиль 0 10 км 10/6 600 м
[Cu Sc Ac trans Cs]
+28.0 +25.1 84 +40 +40 очень
душно
1005.1 998.9
18 20.08 штиль 0 10 км 10/3 600 м
[Cu Sc Ac trans Cs]
+27.0 +25.3 90 +39 +39 очень
душно
1003.7 997.5
21 20.08 штиль 0 10 км 10/4 600 м
[Cu Sc Ac trans Cs]
+26.0 +24.8 93 +37 +37 очень
душно
1002.5 996.3
00 21.08 штиль 0 10 км 8/3 600 м
[Sc Ac trans Cs]
+25.0 +24.6 98 +35 +36 очень
душно
1005.3 999.1 +24.8
03 21.08 штиль 0 12 км 8/5 600 м
[Cu Sc Ac trans Cs]
+30.5 +25.6 75 +45 +52 опасность
перегрева
1006.2 1000.0
06 21.08 ЮЗ 6 12 км 10/5 600 м
[Cu Sc Ac trans Cs]
+31.5 +25.6 71 +46 +48 опасность
перегрева
1004.6 998.5
09 21.08 ЮВ 3 8000 м осадки на расстоянии 10/5 600 м
[Cu Sc Ac trans Cs]
+31.7 +25.4 69 +46 +47 опасность
перегрева
1002.7 996.6
12 21.08 ЮЗ 9 7000 м гроза, ливневой дождь 10/6 600 м
[Cb cap Ac trans Cs]
+24.5 +24.3 99 +34 +34 очень
душно
1006.1 999.9 +32.2 42
15 21.08 штиль 0 7000 м слаб. дождь {гроза} 10/6 600 м
[Cu Sc Ac trans Cs]
+24.4 +24.2 99 +34 +34 очень
душно
1007.0 1000.8 11
18 21.08 штиль 0 7000 м дымка {гроза, дождь} 10/5 600 м
[Cu Sc Ac trans Cs]
+24.3 +24.1 99 +33 +33 очень
душно
1006.3 1000.1 0.2
21 21.08 штиль 0 10 км 10/5 600 м
[Sc Ac As Cs]
+24.0 +23.1 95 +32 +32 очень
душно
1006.1 999.8
00 22.08 штиль 0 6000 м дымка 10/5 600 м
[Cu Sc Ac trans Cs]
+25.7 +25.7 100 +38 +38 очень
душно
1007.0 1000.8 +24.3
03 22.08 Ю 5 8000 м дымка 10/6 600 м
[Cu Sc Ac trans Cs]
+29.0 +26.9 88 +45 +47 опасность
перегрева
1007.9 1001.8
06 22.08 штиль 0 12 км 10/5 600 м
[Cu Sc Ac trans Cs]
+30.8 +26.2 77 +47 +54 опасность
перегрева
1005.9 999.8
09 22.08 Ю 4 10 км 6/3 600 м
[Cu med, cong Ac trans Cs]
+32.5 +26.2 69 +48 +51 опасность
перегрева
1003.6 997.6
12 22.08 Ю 3 8000 м слаб. дождь 10/6 600 м
[Cu Sc Ac trans Ci fib]
+25.0 +25.0 100 +36 +36 очень
душно
1006.0 999.7 +32.5 46
15 22.08 штиль 0 7000 м слаб. дождь 10/6 600 м
[Cu Sc Ac trans Cs]
+25.0 +24.7 98 +35 +35 очень
душно
1008.1 1001.9 8
18 22.08 штиль 0 6000 м слаб. дождь 10/6 600 м
[Cu Sc Ac trans Cs]
+24.9 +24.7 99 +35 +35 очень
душно
1007.3 1001.1 4
21 22.08 штиль 0 6000 м дымка {дождь} 10/5 600 м
[Cu Sc Ac trans Cs]
+24.6 +24.6 100 +34 +34 очень
душно
1006.2 999.9 1
00 23.08 штиль 0 8000 м дымка {дождь} 10/4 600 м
[Sc Ac trans Cs]
+25.0 +25.0 100 +36 +36 очень
душно
1008.1 1001.8 +24.4 59
03 23.08 штиль 0 8000 м дымка 10/6 600 м
[Cu Sc Ac trans Cs]
+27.7 +26.0 90 +41 +45 опасность
перегрева
1009.2 1003.0
06 23.08 штиль 0 10 км 8/4 600 м
[Cu Sc Ac trans Cs]
+29.7 +26.3 82 +45 +57 опасность
перегрева
1007.1 1001.0
09 23.08 штиль 0 10 км 6/3 600 м
[Cu med, cong Ac trans Cs]
+31.4 +25.9 73 +47 +53 опасность
перегрева
1004.9 998.8
12 23.08 штиль 0 10 км 10/3 600 м
[Sc Ac trans Cs]
+29.5 +26.7 85 +46 +46 опасность
перегрева
1006.2 1000.1 +31.5
15 23.08 штиль 0 6000 м слаб. дождь 10/6 600 м
[Cu Sc As op]
+25.8 +25.4 98 +38 +38 очень
душно
1007.7 1001.5 1
18 23.08 штиль 0 6000 м слаб. дождь 10/6 600 м
[Cu Sc Ac trans Cs]
+26.0 +25.3 96 +38 +38 очень
душно
1007.0 1000.8 2
21 23.08 штиль 0 6000 м слаб. дождь 10/5 600 м
[Cu Sc Ac und Cs]
+25.2 +25.0 99 +36 +36 очень
душно
1006.1 999.9 0.1
00 24.08 штиль 0 10 км {дождь} 10/5 600 м
[Sc Ac trans Cs]
+25.5 +25.2 98 +37 +37 очень
душно
1007.2 1001.0 +24.5 0.1
03 24.08 штиль 0 12 км 8/3 600 м
[Sc Ac trans Cs]
+28.8 +26.3 86 +44 +53 опасность
перегрева
1007.9 1001.8
06 24.08 штиль 0 12 км 8/6 600 м
[Cu Sc Ac trans Cs]
+31.2 +26.0 74 +47 +55 опасность
перегрева
1006.0 999.9
09 24.08 штиль 0 6000 м слаб. дождь 10/8 600 м
[Frnb As op]
+27.5 +26.1 92 +41 +42 опасность
перегрева
1005.6 999.4 1
12 24.08 штиль 0 8000 м слаб. дождь 10/6 600 м
[Cu Sc Ac trans Cs]
+26.5 +25.8 96 +39 +39 очень
душно
1005.2 999.0 +32.2 9
15 24.08 штиль 0 7000 м дымка {дождь} 10/6 600 м
[Cu Sc Ac trans Cs]
+26.3 +25.9 98 +39 +39 очень
душно
1007.0 1000.8 0.8
18 24.08 штиль 0 7000 м слаб. дождь 10/6 600 м
[Cu Sc Ac trans Cs]
+26.0 +25.7 98 +38 +38 очень
душно
1006.2 1000.0 2
21 24.08 штиль 0 7000 м дымка {дождь} 10/6 600 м
[Cu Sc Ac trans Cs]
+25.5 +25.2 98 +37 +37 очень
душно
1004.9 998.7 0.3
00 25.08 штиль 0 8000 м дымка {дождь} 10/6 600 м
[Cu Sc As op]
+25.2 +25.0 99 +36 +36 очень
душно
1006.9 1000.7 +24.9 12
03 25.08 штиль 0 8000 м дымка 10/6 600 м
[Cu Sc Ac trans Cs]
+27.2 +25.9 93 +41 +45 опасность
перегрева
1008.2 1002.0
06 25.08 штиль 0 12 км 8/3 600 м
[Cu hum Ac trans Cs]
+32.0 +26.0 71 +48 +61 опасность
перегрева
1006.2 1000.1
09 25.08 штиль 0 12 км 8/3 600 м
[Cu hum Ac trans Cs]
+33.2 +25.6 64 +48 +53 опасность
перегрева
1003.1 997.0
12 25.08 штиль 0 8000 м слаб. дождь 10/5 600 м
[Cu Sc Ac trans Cs]
+26.7 +25.7 94 +39 +39 очень
душно
1003.8 997.7 +33.4 6
15 25.08 штиль 0 10 км {дождь} 10/5 600 м
[Cu Sc Ac trans Cs]
+26.3 +25.6 96 +39 +39 очень
душно
1006.4 1000.2 0.0
18 25.08 штиль 0 10 км {дождь} 10/5 600 м
[Cu Sc Ac trans Cs]
+26.0 +25.7 98 +38 +38 очень
душно
1005.5 999.3

 

Местоположение метеостанции Си Самронг Агромет (Таиланд): широта 17.17 долгота 99.87 высота над уровнем моря 54 м.

В архиве по умолчанию представлена погода в Си Самронг Агромете за последнюю неделю. Архивные данные за месяц целиком и за предыдущие месяцы, начиная с января 2011 года, Вы можете получить, выбрав интересующий диапазон дат из раскрывающегося списка и нажав кнопку "Ввод!".


*Определитесь, кто Вы:
робот инопланетянин человек

Внимание! Время в таблицах - всемирное. Для получения местного времени необходимо прибавить поправку, которая равна 7 ч.

Смотрите также архив погоды в соседних городах и на ближайших метеорологических станциях:

Погода в Сукхотаи (Таиланд) (11 км)
Погода в Уттарадите (Таиланд) (56 км)
Погода в Пхитсанулоке (Таиланд) (60 км)
Погода в Таке (Таиланд) (83 км)
Погода в Кампхэнгпхете (Таиланд) (85 км)
Погода в Тоене (Таиланд) (85 км)
Погода на Плотине Пумипона (Таиланд) (91 км)
Погода в Пичит Агромете (Таиланд) (93 км)
Погода в Дои Му Со Агромете (Таиланд) (110 км)
Погода в Прхрэ (Таиланд) (115 км)

Пояснения к столбцам:

Ветер - указаны скорость ветра в м/с - средняя за 10 мин, порывы в срок и между сроками (в фигурных скобках) и направление, откуда дует ветер: С - северный, СВ - северо-восточный, В - восточный, ЮВ - юго-восточный, Ю - южный, ЮЗ - юго-западный, З - западный, СЗ - северо-западный.
Видимость - горизонтальная дальность видимости в метрах или километрах. При видимости от 1 до 10 км при отсутствии осадков обычно наблюдается дымка, при ухудшении видимости до 1 км и менее - туман. В сухую погоду видимость может ухудшаться дымом, пылью или мглою.
Явления - указаны атмосферные явления, наблюдавшиеся в срок или в последний час перед сроком; фигурными скобками обозначены явления, наблюдавшиеся между сроками (за 1-3 часа до срока); квадратными скобками обозначены град или гололедные отложения с указанием их диаметра в мм.
Облачность - указаны через наклонную черту общая и нижняя облачность в баллах и высота нижней границы облаков в метрах; квадратными скобками обозначены формы облаков: Ci - перистые, Cs - перисто-слоистые, Cc - перисто-кучевые, Ac - высококучевые, As - высокослоистые, Sc - слоисто-кучевые, Ns - слоисто-дождевые, Cu - кучевые, Cb - кучево-дождевые. Подробнее классификацию облаков см. в Атласе облаков (PDF).
T - Температура воздуха - температура, измеренная на высоте 2 м над землей.
Td - Температура точки росы - температура, при понижении до которой содержащийся в воздухе водяной пар достигнет насыщения.
f - Относительная влажность воздуха - влажноcть воздуха, измеренная на высоте 2 м над землей.
Te - Эффективная температура - температура, которую ощущает одетый по сезону человек в тени. Характеристика душности погоды. При расчете учитывается влияние влажности воздуха и скорости ветра на теплоощущения человека.
Tes - Эффективная температура на солнце - температура, которую ощущает человек, с поправкой на солнечный нагрев. Характеристика знойности погоды. Зависит от высоты солнца над горизонтом, облачности и скорости ветра. Ночью, в пасмурную погоду, а также при ветре 12 м/с и более поправка равна нулю.
P - Атмосферное давление - приведенное к уровню моря атмосферное давление.
Po - Атмосферное давление - измеренное на уровне метеостанции атмосферное давление.
Tmin - Минимальная температура - минимум температуры воздуха на высоте 2 м над землей.
Tmax - Максимальная температура - максимум температуры воздуха на высоте 2 м над землей.
R - Количество осадков - Количество выпавших осадков за период времени, мм. При наведении курсора мыши на число - период времени, за который выпало указанное количество осадков.
R24 - Количество осадков - Количество выпавших осадков за 24 часа, мм.
S - Снежный покров - Высота снежного покрова, см. При наведении курсора мыши на число - состояние снежного покрова и степень покрытия местности в баллах.